Voltar ao catálogo

OPS 4682 DEB

AtivoPO
NORAD 18691·DEBRIS·🇺🇸 United States

Lançado Apr 3, 1965 de Vandenberg Space Force Base

Loading…

Próximas Passagens (próximas 24 horas)

TLE

AtualizadoSource: Space-Track

Época: Sep 13, 2026, 12:54 UTC

1 18691U 65027AJ  26256.53756360  .00000012  00000-0  15503-4 0  9992
2 18691  90.2303 358.5828 0025167 228.9716 143.4903 12.96788654836545

Acompanhe OPS 4682 DEB em tempo real com AllMySat

Download on the App Store